This is the latest recevied weather packets stored in our database for station/object SP1BMW-13. If no packets are shown the sender has not sent any weather packets the latest 10 day(s).
| Time | Temp. | Humidity | Pressure | Rain* | Wind** | Luminosity | Snow |
|---|---|---|---|---|---|---|---|
| 1778169057 | 11.11° C | 61% | 1015.3 hPa | 0 mm | 0.89 m/s, 9° | 89 W/m² | - |
| 1778168997 | 11.11° C | 62% | 1015.5 hPa | 0 mm | 1.79 m/s, 51° | 90 W/m² | - |
| 1778168937 | 11.11° C | 62% | 1015.4 hPa | 0 mm | 0.45 m/s, 349° | 91 W/m² | - |
| 1778168876 | 11.11° C | 62% | 1015.3 hPa | 0 mm | 0.45 m/s, 305° | 92 W/m² | - |
| 1778168816 | 11.11° C | 61% | 1015.4 hPa | 0 mm | 0.89 m/s, 0° | 93 W/m² | - |
| 1778168756 | 11.11° C | 61% | 1015.5 hPa | 0 mm | 1.79 m/s, 346° | 94 W/m² | - |
| 1778168696 | 11.11° C | 61% | 1015.2 hPa | 0 mm | 2.24 m/s, 24° | 95 W/m² | - |
| 1778168636 | 11.11° C | 61% | 1015.5 hPa | 0 mm | 0.45 m/s, 41° | 97 W/m² | - |
| 1778168577 | 11.11° C | 61% | 1015.2 hPa | 0 mm | 2.24 m/s, 317° | 98 W/m² | - |
| 1778168518 | 11.11° C | 62% | 1015.4 hPa | 0 mm | 0.89 m/s, 320° | 100 W/m² | - |
| 1778168456 | 11.11° C | 61% | 1015.3 hPa | 0 mm | 0.89 m/s, 291° | 101 W/m² | - |
| 1778168396 | 11.11° C | 61% | 1015.4 hPa | 0 mm | 0.89 m/s, 51° | 102 W/m² | - |
| 1778168336 | 11.11° C | 62% | 1015.3 hPa | 0 mm | 0.89 m/s, 0° | 104 W/m² | - |
| 1778168277 | 11.11° C | 61% | 1015.4 hPa | 0 mm | 0.89 m/s, 308° | 105 W/m² | - |
| 1778168217 | 11.11° C | 61% | 1015.4 hPa | 0 mm | 0.89 m/s, 281° | 106 W/m² | - |
| 1778168156 | 11.11° C | 60% | 1015.3 hPa | 0 mm | 2.24 m/s, 349° | 108 W/m² | - |
| 1778168097 | 11.11° C | 61% | 1015.4 hPa | 0 mm | 2.24 m/s, 272° | 109 W/m² | - |
| 1778168036 | 11.11° C | 61% | 1015.4 hPa | 0 mm | 1.34 m/s, 251° | 111 W/m² | - |
| 1778167976 | 11.11° C | 62% | 1015.5 hPa | 0 mm | 0.89 m/s, 293° | 112 W/m² | - |
| 1778167917 | 11.11° C | 61% | 1015.4 hPa | 0 mm | 0.45 m/s, 37° | 113 W/m² | - |
| 1778167857 | 11.11° C | 61% | 1015.4 hPa | 0 mm | 0.45 m/s, 6° | 115 W/m² | - |
| 1778167796 | 11.11° C | 62% | 1015.4 hPa | 0 mm | 1.79 m/s, 347° | 116 W/m² | - |
| 1778167736 | 11.11° C | 61% | 1015.3 hPa | 0 mm | 0.45 m/s, 32° | 117 W/m² | - |
| 1778167676 | 11.11° C | 60% | 1015.1 hPa | 0 mm | 1.79 m/s, 314° | 119 W/m² | - |
| 1778167616 | 11.11° C | 61% | 1015.3 hPa | 0 mm | 1.34 m/s, 334° | 120 W/m² | - |
* Rain latest hour (hover to see other rain measurements)
** Current wind speed in m/s (hover to see current wind gust speed)